Torna al catalogo

CZ-6A DEB

AttivoSSO
NORAD 54609·DEBRIS·🇨🇳 China

Lanciato Nov 11, 2022 da Taiyuan Satellite Launch Center

Loading…

Prossimi Passaggi (prossime 24 ore)

TLE

AggiornatoSource: Space-Track

Epoca: Sep 14, 2026, 14:07 UTC

1 54609U 22151NK  26257.58874136  .00003728  00000-0  10144-2 0  9991
2 54609  98.7291 304.3932 0033845  17.1159 343.1166 14.47749083200512

Traccia CZ-6A DEB in tempo reale con AllMySat

Download on the App Store